User: anonymous   Login
Location: Colorado Springs
(38.8340°N, 104.8210°W)
Time: 07:55:34
(UTC-06:00)
Language:

BEESAT 3 - Orbit

View from above orbital plane
View from above orbital plane
View from above satellite
View from above satellite

Ground track
Ground track

The orbit data is extracted from the following two-line orbital elements,

1 39134U 13015E   18203.61525363 +.00001167 +00000-0 +64470-4 0  9995
2 39134 064.8637 012.2963 0007447 216.7837 143.2779 15.19266509289900
Epoch (UTC): 22 July 2018 14:45:57
Eccentricity: 0.0007447
inclination: 64.8637°
perigee height: 503 km
apogee height: 513 km
right ascension of ascending node: 12.2963°
argument of perigee: 216.7837°
revolutions per day: 15.19266509
mean anomaly at epoch: 143.2779°
orbit number at epoch: 28990

The dashed part of the orbit path shows where the satellite is in the earth's shadow,  

DLR